Location: Big Muddy River
(37.5737°N, 89.5170°W)
Time: 05:00:52
(UTC+00:00)

Daily predictions for brighter satellites

Satellite Brightness Start Highest point End
(mag) Time Altitude Azimuth Time Altitude Azimuth Time Altitude Azimuth
NOSS 2-3 (E) 3.7 00:00:40 10° SW 00:04:20 55° NW 00:06:39 20° NNE
Okean 1 4.4 00:02:59 10° SSE 00:04:57 23° ESE 00:04:57 23° ESE
NOSS 2-3 (D) 3.6 00:02:24 10° SW 00:06:07 59° WNW 00:08:20 22° NNE
Resurs 1-3 3.9 00:02:28 10° SE 00:06:28 39° ENE 00:10:29 10° N
COSMO-SKYMED 1 2.5 00:04:34 21° NNE 00:07:11 55° E 00:11:12 10° S
Cosmos 783 Rocket 4.5 00:02:57 10° NNW 00:08:16 88° WSW 00:13:33 10° SSE
Cosmos 2263 Rocket 2.8 00:03:27 10° N 00:08:32 33° ENE 00:10:29 26° E
Cosmos 1900 4.2 00:07:41 10° NNW 00:12:42 73° ENE 00:17:35 10° SE
COSMOS 2455 4.0 00:09:04 10° SSE 00:13:09 22° ESE 00:13:09 22° ESE
Cosmos 1538 Rocket 4.4 00:11:40 10° N 00:16:37 39° ENE 00:18:32 29° ESE
Cosmos 1553 Rocket 4.2 00:10:58 10° SSE 00:16:42 44° E 00:21:03 18° NNE
Cosmos 1726 Rocket 4.4 00:16:57 10° SSW 00:21:29 54° W 00:26:02 10° N
Cosmos 2227 Rocket 2.0 00:16:15 10° NNW 00:21:55 76° ENE 00:27:33 10° SSE
Meteor 2-2 Rocket 4.1 00:22:53 10° S 00:28:31 67° E 00:32:13 22° NNE
SL-19 R/B 4.1 00:24:34 10° SSE 00:29:47 65° ENE 00:35:17 10° N
Cosmos 1697 Rocket 4.2 00:27:06 10° SW 00:32:08 33° WNW 00:37:11 10° N
ATLAS CENTAUR R/B 4.0 00:30:40 10° WNW 00:32:32 15° WSW 00:34:21 10° SSW
Spot 4 Rocket 3.9 00:27:56 10° SSE 00:33:02 84° ENE 00:38:09 10° NNW
YAOGAN 1 2.4 00:30:11 10° SSE 00:34:25 88° E 00:38:42 10° NNW
SJ-7 4.3 00:31:44 10° SSE 00:39:34 - NNW 00:34:46 59° SSE
H-II Stage 2 4.3 00:32:09 10° W 00:38:24 20° SW 00:41:02 11° S
IRAS Rocket 4.0 00:36:07 10° SSE 00:41:36 80° ENE 00:47:05 10° NNW
Cosmos 1898 Rocket 3.4 00:37:28 10° SSW 00:42:37 88° WNW 00:44:15 45° NNE
Cosmos 1244 Rocket 4.3 00:37:38 10° N 00:43:54 70° E 00:50:03 10° SSE
DMSP B5D1-3 4.3 00:44:15 65° ENE 00:44:45 70° ESE 00:49:46 10° S
Cosmos-2242 3.4 00:45:26 10° SSW 00:49:36 59° W 00:50:38 44° NNW
Meteor 2-10 4.2 00:49:47 10° NNW 00:55:11 77° W 01:00:45 10° S
BREEZE-M DEB (TANK) 4.3 00:51:36 10° NW 00:56:14 54° NE 00:58:34 44° ENE
Helios 1A Rocket 4.3 00:59:45 30° W 00:59:45 30° W 01:02:06 10° SW
SL-08 R/B 4.3 00:55:19 10° N 01:01:40 81° E 01:08:00 10° S
Cosmos 2237 4.3 00:58:28 10° SSW 01:03:16 61° SSE 01:03:16 61° SSE
Cosmos 1937 Rocket 3.5 00:59:05 10° SSW 01:04:15 77° WNW 01:04:15 77° WNW
SL-16 R/B 4.0 01:08:52 10° S 01:10:23 18° S 01:10:23 18° S
Cosmos 967 Rocket 4.4 01:08:05 10° SSW 01:14:24 82° WNW 01:14:48 77° N
Cosmos 1980 Rocket 4.1 01:30:29 10° WSW 01:35:00 24° WNW 01:36:57 20° NNW
Cosmos 2263 Rocket 3.7 01:47:21 10° NW 01:52:20 32° WSW 01:52:20 32° WSW
COSMOS 2455 4.3 01:53:08 10° SW 01:56:21 31° WSW 01:56:21 31° WSW
CZ-3 R/B 4.0 09:25:11 56° SW 09:27:18 58° SSW 09:38:10 10° SE
COSMOS 2406 4.2 10:01:54 42° E 10:01:54 42° E 10:06:44 10° NE
Cosmos 2082 Rocket 4.3 10:10:40 16° NNE 10:10:40 16° NNE 10:11:47 10° NNE
CZ-3 Stage 3 4.0 10:07:38 53° SW 10:10:06 62° S 10:42:21 10° ESE
USA 59 Rocket 2.1 10:11:24 25° ENE 10:11:24 25° ENE 10:14:42 10° ESE
Cosmos 967 Rocket 4.4 10:24:59 80° S 10:24:59 80° S 10:31:04 10° SSE
Cosmos 1980 Rocket 3.0 10:32:10 40° S 10:32:10 40° S 10:35:41 10° S
Cosmos 2180 Rocket 4.4 10:33:48 51° N 10:35:35 89° W 10:41:57 10° S
Cosmos 2369 3.7 10:39:08 62° N 10:40:03 78° ENE 10:45:42 10° SSE
NOSS 2-1 (C) 4.4 10:40:19 44° NE 10:40:22 44° ENE 10:45:12 10° SE
FengYun 1-2 T 4.3 10:35:13 10° NNE 10:40:54 80° ESE 10:46:33 10° S
BREEZE-M DEB (TANK) 3.8 10:44:56 53° NW 10:46:22 75° NNE 10:50:06 10° ESE
Cosmos 1892 Rocket 4.3 10:44:02 10° S 10:48:15 52° E 10:52:31 10° NNE
COSMO-SKYMED 1 4.3 10:50:33 10° SE 10:54:04 28° ENE 10:57:37 10° NNE
Cosmos 2142 Rocket 4.5 10:56:52 51° WNW 10:57:39 55° W 11:03:36 10° SSW
COSMOS 2455 2.7 10:59:43 44° NW 11:01:45 77° WSW 11:07:43 10° SSE
Cosmos 2360 Rocket 4.2 10:57:51 10° N 11:02:14 23° NE 11:06:36 10° ESE
Cosmos 2333 Rocket 3.6 10:59:16 10° N 11:04:32 35° ENE 11:09:45 10° SE
NOSS 3-1 (C) 4.2 11:01:55 23° NNW 11:07:12 79° ENE 11:16:25 10° SE
Cosmos 1092 Rocket 4.2 11:04:47 10° S 11:11:02 72° E 11:17:15 10° N
Cosmos 1898 Rocket 3.4 11:10:27 43° NW 11:12:00 63° WSW 11:17:11 10° S
Cosmos 1428 Rocket 4.4 11:06:21 10° SSW 11:12:29 63° W 11:18:43 10° N
Nadezhda 4 Rocket 4.1 11:07:20 10° SSW 11:13:27 51° W 11:19:33 10° N
IRS-1D 3.4 11:13:02 10° N 11:18:02 67° WNW 11:23:06 10° SSW
SL-24 R/B 4.2 11:14:00 10° N 11:19:09 78° WNW 11:23:35 10° SSW
Cosmos 2219 Rocket 4.5 11:15:30 10° N 11:19:27 19° NE 11:23:22 10° E
SKYMED 2 3.4 11:21:26 10° S 11:25:46 76° WSW 11:29:04 17° NNW
Cosmos 2322 Rocket 3.4 11:20:45 10° N 11:26:05 39° ENE 11:31:21 10° SE
Helios 1A Rocket 3.0 11:24:07 10° SSE 11:27:23 56° ENE 11:30:06 14° N
OAO 2 Rocket 4.3 11:23:47 17° SW 11:27:27 44° SSE 11:32:18 10° E
Cosmos 2195 Rocket 4.5 11:21:47 10° SSW 11:27:55 60° W 11:34:10 10° N
Cosmos 2058 Rocket 3.5 11:24:57 10° N 11:29:21 64° E 11:33:41 10° SSE
Okean 1 4.0 11:29:19 10° N 11:32:46 48° E 11:36:12 10° SSE
Cosmos 1937 Rocket 3.5 11:29:56 24° NW 11:32:52 55° WSW 11:37:50 10° S
Cosmos 858 Rocket 4.4 11:30:01 15° NNW 11:34:21 78° WSW 11:39:31 10° SSE
Meteor 2-20 4.3 11:28:46 10° N 11:34:53 81° W 11:40:56 10° S
Meteor 2-3 Rocket 4.1 11:34:49 10° SSW 11:40:12 42° WNW 11:45:35 10° N
Cosmos 1606 Rocket 4.5 11:42:55 26° WNW 11:43:25 27° W 11:47:05 10° SSW
SL-4 R/B 3.9 11:43:26 10° N 11:44:48 12° NNE 11:46:13 10° NE
COSMOS 2406 4.1 11:44:05 22° W 11:45:48 25° WNW 11:50:26 10° N
CZ-4 R/B 4.2 11:41:48 10° N 11:46:03 37° WNW 11:50:16 10° SW
Meteor 1-26 Rocket 4.2 11:42:08 10° N 11:47:44 84° W 11:53:29 10° S
Cosmos 405 Rocket 2.3 11:47:31 10° S 11:50:45 81° E 11:54:01 10° N
Cosmos 2082 Rocket 4.1 11:52:33 11° NNW 11:52:33 11° NNW 11:53:19 10° NNW
Cosmos 2151 4.5 11:49:02 10° SSE 11:52:47 37° E 11:56:35 10° NNE
Tiangong -0.7 11:51:40 21° WSW 11:52:58 27° SSW 11:55:45 10° SSE
Cosmos 1814 Rocket 3.9 11:48:59 10° SSW 11:54:09 67° WNW 11:59:25 10° NNE
SL-16 R/B 2.2 11:48:37 10° NNW 11:54:15 67° WSW 11:59:49 10° S
